Location: Unspecified
(0.0000°N, 0.0000°E)
Time: 21:15:17

AO-7 - Pass Details

Date: 11 December 2017
Orbit: 1440 x 1459 km, 101.7° (Epoch: 21 March)

Event Time Altitude Azimuth Distance (km) Brightness Sun altitude
Exits shadow 02:31:26 33° 72° (ENE) 2,264 ? -45.2°
Maximum altitude 02:33:52 39° 106° (ESE) 2,054 ? -44.7°
Drops below altitude 10° 02:41:26 10° 172° (S) 3,578 ? -43.1°
Sets 02:44:27 0° 179° (S) 4,556 ? -42.5°
